Weather in Augusta

United States     33°28′27″N   81°57′48″W
temp.,
°C
wind,
m/s
gust,
m/s
humid.,
%
clouds,
%
prec.,
mm/h
press.,
hPa
HPBL,
m
23 may, mon
mon2323:00+25ssw3865100 0.0 1021361
02:00+25ssw2568100 0.0 1020264
05:00+23e0074100 0.0 102095
08:00+24w1170100 0.0 1021290
11:00+21nne2587100 1.0 1020220
14:00+21ene2492100 2.7 1019229
17:00+27s4763100 0.1 10161035
20:00+24sw2684100 1.3 1017199
24 may, tue
tue2423:00+21sw3984100 0.1 1017322
02:00+20ssw2791100 0.3 1016241
05:00+20ssw259594 0.0 1016185
08:00+21wsw258699 0.0 1017258
11:00+28wsw3553100 0.0 10181011
14:00+32wsw3536100 0.0 10172040
17:00+33sw3434100 0.0 10152439
20:00+26nne236385 0.7 1017177
25 may, wed
wed2523:00+21ssw3693100 5.8 1021277
02:00+21nnw3595100 7.3 1019214
05:00+20e249597 0.2 1019236
08:00+20ne2494100 0.2 1021226
11:00+26e2367100 0.0 1021945
14:00+31ese3444100 0.0 10202008
17:00+32s343518 0.0 10182521
20:00+27ese4955100 0.2 1018499
26 may, thu
thu2623:00+24se3971100 0.2 1020498
02:00+22se398397 0.2 1020438
05:00+21se2894100 0.4 1019361
08:00+22ese359594 2.1 1020238
11:00+27sse5762100 1.1 10201165
14:00+31sse6943100 1.3 10182505
17:00+28se585741 0.0 10161371
20:00+25sse6107228 1.1 1016863
27 may, fri
fri2723:00+23sse5128096 0.0 1016829
02:00+21sse4139265 0.8 1015625
05:00+21s31195100 0.4 1014580
08:00+22sse41192100 1.3 1015558
11:00+23s51285100 2.6 1014844
14:00+22s4119294 6.6 1013637
17:00+26ssw488073 4.5 1010990
20:00+25sse49760 4.8 1009560